Погода в Засечном

Россия / Пензенская область     53°06′21″N   45°04′18″E
темп.,
°C
ветер,
м/с
пор.,
м/с
влажн.,
%
обл.,
%
осадки,
мм/ч
давл.,
гПа
погр.,
м
21 апреля, ср
ср2100:00+5юв132484100 2.3 1014958
03:00+5юв132288100 7.5 1013960
06:00+5юв11217441 0.0 1013734
09:00+5юв111987100 0.1 1014822
12:00+8ююв101878100 0.0 1013904
15:00+7ююв91590100 0.1 1014749
18:00+8ю71191100 0.3 1015528
21:00+5ююз51192100 0.4 1019313
22 апреля, чт
чт2200:00+5ю379156 0.0 1019134
03:00+5ююв411955 0.1 1020253
06:00+5ююв5109752 0.0 1021289
09:00+9ю578218 0.0 1022544
12:00+14юз68545 0.3 10211577
15:00+14з5757100 0.6 10211071
18:00+12зюз116715 0.3 102225
21:00+9ю11735 0.4 102310
23 апреля, пт
пт2300:00+8ююв228176 0.0 102310
03:00+7ююв22835 0.0 102319
06:00+7ююв22861 0.0 102340
09:00+12ююв33685 0.0 1023464
12:00+15ююв325180 0.3 10221627
15:00+15ююв224691 0.3 10201851
18:00+13ююв225992 0.1 101943
21:00+9юв388237 0.3 1019179
24 апреля, сб
сб2400:00+8юв338638 0.1 101853
03:00+7юв239129 0.1 101745
06:00+7юв25906 0.0 1015135
09:00+12ююв456875 0.0 1014718
12:00+15ю5657100 0.4 10111490
15:00+15ююз7952100 1.7 10091621
18:00+11зюз81282100 1.8 1009946
21:00+7з698099 1.9 1012992
25 апреля, вс
вс2500:00+6з487312 0.0 1012521
03:00+4юз49915 0.0 1013312
06:00+4юз3689100 0.0 1013241
09:00+6ююз4471100 0.1 1013632
12:00+7ююз3371100 0.4 1013965
15:00+8юз456680 1.3 10131022
18:00+7юз467181 1.2 1014754
21:00+5юз378385 2.3 1015156